Location: Unspecified
(0.0000°N, 0.0000°E)
Time: 23:08:57
(UTC+00:00)

STARLINK-32315 - Pass Details

Date: 26 April 2025
Orbit: 474 x 476 km, 53.2° (Epoch: 16 May)

Event Time Altitude Azimuth Distance (km) Brightness Sun altitude
Rises 05:18:45 0° 198° (SSW) 2,515 6.7 -9.5°
Reaches altitude 10° 05:21:04 10° 188° (S) 1,635 5.8 -8.9°
Maximum altitude 05:24:22 31° 124° (SE) 850 5.1 -8.1°
Drops below altitude 10° 05:27:39 10° 60° (ENE) 1,628 7.5 -7.3°
Sets 05:29:57 0° 50° (NE) 2,502 8.3 -6.8°
